Location: Erskine
(52.3216°N, 112.8806°W)
Time: 18:58:33
(UTC+00:00)

MOZHAYETS 4 - Pass Details

Date: 10 December 2023
Orbit: 654 x 672 km, 98.3° (Epoch: 03 March)

Event Time Altitude Azimuth Distance (km) Brightness Sun altitude
Rises 23:55:18 0° 13° (NNE) 3,038 10.7 -5.5°
Reaches altitude 10° 23:57:33 10° 12° (NNE) 2,120 9.9 -5.8°
Maximum altitude 00:02:10 74° 289° (WNW) 708 8.0 -6.4°
Drops below altitude 10° 00:06:46 10° 204° (SSW) 2,103 11.2 -7.0°
Sets 00:08:59 0° 203° (SSW) 3,011 12.0 -7.3°
